Temperature
16 16 15 16 16 16 16 16 16 16 16 16 16 16 16 16 16 16 16 16 16 16 16 16 15 15 15 15 15 15 15 15 15 15 15 15 15 15 15 15 15 15 15
16 16 15 16 16 16 16 16 16 16 16 16 16 16 16 16 16 16 16 16 16 16 15 15 16 15 15 15 15 15 15 15 15 15 15 15 15 15 15 15 15 15 15
16 15 15 15 15 16 16 16 16 16 16 16 16 16 16 16 16 16 16 15 15 15 15 15 15 15 15 15 15 15 15 15 15 15 15 15 15 14 15 15 15 15 15
15 15 15 15 15 15 16 16 16 16 16 16 16 16 16 16 15 15 15 15 15 15 15 15 15 15 15 15 15 15 15 15 15 15 15 15 14 14 14 14 14 14 15
15 15 15 15 15 15 15 15 16 16 16 16 16 16 15 15 15 15 15 15 15 15 15 15 15 15 15 15 14 14 14 14 14 14 15 14 14 14 14 14 14 14 14
14 15 15 15 15 15 15 15 15 15 15 15 15 15 15 15 15 15 15 15 15 15 15 15 15 15 15 14 14 14 14 14 14 14 14 14 14 14 14 14 14 14 14
14 14 14 14 14 14 15 15 15 15 15 15 15 15 15 15 15 15 15 15 15 15 15 15 15 14 14 14 14 14 14 14 14 14 14 14 14 14 14 14 14 14 14
14 14 14 14 14 14 14 14 14 15 15 15 15 15 15 15 15 15 14 14 14 14 14 14 14 14 14 14 14 14 14 14 14 14 14 13 13 13 13 14 14 14 14
13 13 13 13 13 14 14 14 14 14 14 14 14 14 15 14 14 14 14 14 14 14 14 14 14 14 14 14 14 14 14 14 14 14 13 13 13 13 13 13 13 13 13
12 13 13 13 13 13 13 14 14 14 14 14 14 14 14 14 14 14 14 14 14 14 14 14 14 14 14 14 14 13 13 13 13 13 13 13 13 13 13 13 13 13 13
12 12 12 13 13 13 13 13 13 14 14 14 14 14 14 14 14 14 14 14 14 14 14 14 13 13 13 13 13 13 13 13 13 13 13 13 13 13 13 13 13 13 13
11 12 12 12 12 13 13 13 13 13 13 13 13 13 13 13 13 13 13 13 13 13 13 13 13 13 13 13 13 13 13 13 13 13 13 12 12 12 12 13 12 12 12
11 11 11 12 12 12 12 12 12 13 13 13 13 13 13 13 13 13 13 13 13 13 13 13 13 13 13 13 13 13 13 13 12 12 12 12 12 12 12 12 12 12 12
10 10 11 11 11 12 12 12 12 12 12 12 12 12 13 13 13 13 13 13 13 13 13 13 13 13 12 12 12 12 12 12 12 12 12 12 12 12 12 12 12 12 12
9 10 10 10 11 11 11 12 12 12 12 12 12 12 12 12 12 12 12 13 13 13 13 13 13 12 12 12 12 12 12 12 12 12 12 12 12 12 12 12 12 12 12
9 9 9 10 10 11 11 11 11 12 12 12 12 12 12 12 12 12 12 12 12 12 12 12 12 12 12 12 12 12 12 12 11 11 11 11 11 11 11 11 11 11 11
8 8 9 9 9 10 10 10 11 11 11 11 11 11 11 11 12 12 12 12 12 12 12 12 12 12 12 11 11 11 11 11 11 11 11 11 11 11 11 11 11 11 11
7 8 8 8 9 9 10 10 10 11 11 11 11 11 11 11 11 11 11 12 12 12 11 11 11 11 11 11 11 11 11 11 11 11 11 11 11 11 11 11 11 11 11
7 7 7 8 8 8 9 9 9 10 10 10 10 11 11 11 11 11 11 11 11 11 11 11 11 11 11 11 11 11 11 11 11 10 10 10 11 11 11 10 10 10 10
6 6 7 7 8 8 8 8 9 9 10 10 10 10 10 10 11 11 11 11 11 11 11 11 10 10 11 10 10 10 10 10 10 10 10 10 10 10 10 10 10 10 10
6 6 6 7 7 7 8 8 8 9 9 9 9 10 10 10 10 10 10 10 10 10 10 10 10 10 10 10 10 9 9 9 10 10 10 10 10 10 9 10 10 10 10
5 6 6 6 6 7 7 7 8 8 8 9 9 9 9 9 10 10 10 10 10 10 10 10 10 10 10 10 9 9 9 9 9 9 9 9 9 9 9 9 9 9 9
5 5 5 6 6 6 6 7 7 7 7 8 8 9 9 9 9 9 10 10 10 10 10 10 10 9 9 9 9 9 9 9 9 9 9 9 9 9 9 9 9 9 9
4 5 5 5 5 6 6 6 6 7 7 7 8 8 8 8 9 9 9 9 9 9 9 9 9 9 9 9 9 9 9 9 9 9 8 9 9 9 8 9 9 9 9
4 4 4 5 5 5 5 6 6 6 7 7 7 7 8 8 8 8 8 9 9 9 9 9 9 9 9 9 9 9 9 9 9 9 8 8 8 8 8 8 8 8 8
3 4 4 5 5 5 5 5 6 6 6 6 7 7 7 7 8 8 8 8 8 8 8 9 8 8 8 8 8 8 8 9 9 9 8 8 8 8 8 8 8 8 8
Wind_Speed
2 3 8 10 11 12 12 13 13 14 14 15 16 16 16 16 16 15 16 16 16 16 16 17 18 18 18 18 18 18 18 19 19 19 19 19 19 20 20 20 19 18 20
4 6 9 10 11 12 13 13 13 14 14 15 15 15 16 15 15 15 15 16 15 16 16 17 17 17 17 18 18 18 19 19 19 19 18 18 19 19 20 19 19 18 20
4 7 9 10 11 12 13 13 13 14 14 15 15 15 15 15 15 15 15 15 15 16 16 17 17 17 17 18 18 18 19 19 18 18 17 16 17 18 19 19 19 19 19
5 7 9 10 11 11 12 13 13 14 14 14 14 15 14 14 14 15 15 15 15 15 16 16 16 17 17 18 18 18 18 18 17 16 14 14 15 17 18 18 18 18 18
4 7 9 10 10 11 11 12 13 13 13 14 14 14 14 14 14 14 14 14 14 15 15 16 16 16 17 17 17 17 17 17 16 15 14 14 14 17 18 18 18 18 18
4 6 8 10 10 11 11 12 12 12 13 13 13 13 13 13 13 14 13 14 14 14 15 15 16 16 16 17 16 16 16 16 16 15 14 13 14 16 17 18 17 17 17
4 5 7 9 9 9 10 11 12 12 12 13 13 13 13 13 13 13 13 14 14 14 14 15 15 15 16 16 16 16 16 15 15 14 13 12 14 16 17 17 17 17 17
4 4 6 8 8 8 8 9 11 11 12 12 12 12 12 13 13 13 13 13 13 14 14 14 15 15 16 16 16 16 15 14 13 12 12 12 14 15 16 16 16 16 16
4 4 4 5 6 7 7 8 9 11 11 11 11 12 12 12 12 13 13 13 13 14 14 15 14 15 16 16 16 15 15 14 13 11 11 11 13 14 15 15 15 15 15
4 4 4 4 5 5 6 7 7 9 10 11 11 11 11 12 12 12 12 13 13 13 14 14 14 15 16 16 15 15 14 13 12 10 10 11 13 13 13 14 14 14 14
3 3 3 4 4 4 5 6 7 7 9 10 10 11 11 10 10 10 11 12 12 12 14 14 14 15 15 15 15 15 13 11 11 9 9 11 12 12 12 13 13 13 13
1 1 2 2 3 3 4 4 5 5 7 8 9 10 10 9 9 9 11 12 11 12 13 14 14 14 13 13 13 13 11 11 10 8 8 10 11 12 12 11 11 12 12
2 0 0 1 2 2 3 3 3 4 5 7 8 9 9 9 8 8 9 9 10 10 11 12 12 11 11 11 11 11 11 10 9 8 8 10 10 11 11 10 10 10 11
1 2 0 1 1 2 2 2 3 3 4 5 6 8 8 6 6 6 6 7 8 8 9 10 9 10 11 11 11 10 10 9 8 8 8 10 10 9 10 10 10 10 10
2 2 1 1 0 1 1 2 2 2 3 5 7 7 8 6 5 5 5 6 7 8 8 8 9 9 9 9 10 10 9 9 8 8 7 9 9 9 8 9 9 9 8
2 2 2 1 1 1 1 1 1 2 3 4 6 7 8 7 6 5 5 5 6 8 8 8 9 8 7 8 7 8 8 8 8 8 8 8 8 8 8 8 7 7 7
3 2 2 3 1 1 1 1 2 2 3 3 5 8 8 8 8 6 5 5 6 8 9 8 8 8 6 6 6 6 7 7 7 8 8 7 7 7 7 7 7 6 6
3 3 3 2 2 2 2 2 2 2 3 3 5 7 8 9 9 7 5 4 7 8 8 6 5 5 5 5 4 4 5 6 7 7 7 7 6 6 5 6 6 5 5
3 3 3 2 2 3 2 2 2 3 2 2 3 5 7 9 9 8 5 5 8 7 6 5 4 5 5 5 5 4 4 4 5 6 6 6 6 5 5 4 5 5 4
2 2 3 3 2 2 2 2 2 2 2 2 2 4 6 8 9 8 6 6 8 6 4 5 5 4 5 5 5 4 3 3 4 4 4 4 5 5 5 5 4 4 4
2 2 3 3 2 2 2 3 3 3 2 1 2 4 5 6 7 7 6 6 6 6 6 6 5 5 4 4 4 3 2 2 2 2 3 3 3 4 4 4 4 3 2
3 3 3 4 3 3 3 3 3 3 2 2 1 2 4 5 6 6 7 5 6 6 7 7 6 4 3 3 3 4 2 0 1 1 1 2 1 2 3 3 3 2 2
2 3 3 4 3 3 2 1 1 2 1 1 1 1 2 4 5 5 6 5 5 6 7 7 7 5 5 3 2 4 4 3 1 0 1 1 1 1 1 1 2 2 1
3 3 3 3 3 3 3 4 3 4 3 2 2 2 2 4 4 4 4 6 5 5 7 7 6 5 6 6 2 1 2 4 3 1 1 1 1 2 2 1 2 2 1
3 2 3 2 3 3 4 4 4 4 3 2 2 3 2 3 4 4 4 4 5 5 6 7 6 6 5 5 4 3 2 2 2 3 2 2 1 2 2 2 3 3 3
3 2 2 2 3 3 4 4 5 5 4 4 3 3 3 2 2 3 4 3 4 4 5 6 7 8 6 5 4 4 4 3 3 3 3 3 3 2 2 2 3 4 4
Wind_Direction
188 182 156 143 136 132 128 123 119 118 115 117 119 120 121 120 120 118 116 113 111 109 107 105 104 103 102 101 98 96 94 93 90 87 84 86 87 87 86 85 82 81 84
162 162 150 140 136 134 130 126 123 122 120 120 120 121 120 121 121 120 118 115 113 112 110 108 106 104 103 102 99 97 96 93 91 87 84 84 87 89 88 87 86 86 85
133 145 145 137 133 134 134 130 127 125 123 122 121 119 119 121 122 121 119 116 113 113 111 109 108 106 104 102 101 99 98 96 93 88 85 85 88 90 90 89 88 87 86
127 134 140 137 133 130 135 135 131 129 126 124 123 122 119 120 122 120 119 118 115 113 112 110 109 108 106 105 104 102 99 97 93 88 83 83 88 92 92 91 90 88 88
116 131 136 135 135 131 131 135 134 132 130 128 126 124 122 119 119 121 118 117 115 115 113 113 111 111 110 108 106 104 101 97 92 88 84 84 88 94 92 91 91 90 89
105 127 138 134 133 132 131 135 134 136 134 132 129 127 125 124 120 119 120 118 116 115 116 115 114 114 114 111 108 107 104 98 92 87 85 87 92 96 95 92 91 90 89
108 115 138 138 134 130 133 135 138 135 136 136 134 131 130 126 124 120 119 120 118 117 118 118 116 117 117 113 110 109 106 100 94 89 87 90 97 100 98 95 93 91 89
96 97 125 139 137 134 133 137 139 140 137 135 136 134 132 129 126 125 121 122 122 121 120 121 120 118 119 115 112 111 107 102 97 91 90 95 100 100 99 97 95 92 91
72 70 86 111 129 134 135 135 136 139 136 135 132 133 131 129 129 129 127 124 124 123 122 121 121 120 119 116 113 110 107 102 97 93 93 99 103 101 100 99 97 94 92
63 55 51 81 98 116 130 131 126 132 135 133 130 126 128 130 129 129 129 126 123 124 124 122 120 121 120 117 114 111 107 102 97 94 96 104 106 103 101 101 99 97 95
66 52 40 47 69 91 113 128 125 129 134 134 130 125 122 123 126 127 127 127 123 125 127 125 120 119 118 115 113 111 107 103 100 97 101 109 108 106 103 102 101 100 97
61 63 58 43 49 79 102 113 125 130 135 133 131 128 124 122 124 125 127 126 123 126 128 125 120 116 113 111 109 109 105 103 100 99 105 111 109 106 104 103 104 102 100
199 226 72 57 56 84 93 107 119 130 130 131 133 130 126 121 120 118 117 121 121 122 122 122 117 112 113 113 109 106 106 103 99 98 103 105 105 106 106 105 107 104 103
230 215 254 12 62 84 102 123 123 128 134 133 141 136 131 122 119 121 118 120 123 122 120 119 114 112 110 114 115 110 107 105 101 99 99 101 100 104 108 108 111 110 108
219 223 212 335 134 109 118 131 130 127 146 148 148 148 143 133 133 129 127 126 126 128 126 122 119 116 112 111 114 112 107 106 103 100 101 103 102 99 104 107 108 108 107
225 230 213 210 222 163 156 167 150 157 155 157 154 156 153 147 141 137 135 131 131 136 133 130 129 123 117 115 109 111 110 108 103 99 96 97 99 97 97 102 106 107 106
216 221 226 204 221 201 182 181 155 157 157 155 165 164 161 156 152 144 143 142 139 140 134 124 121 116 115 113 107 108 108 104 100 96 94 95 97 94 94 95 96 104 106
218 213 224 225 212 207 196 175 149 147 153 161 173 171 168 166 161 151 147 153 148 141 137 131 135 128 123 121 115 105 103 104 98 97 94 95 96 94 92 92 97 97 103
229 216 210 215 220 209 199 174 153 145 144 153 166 170 172 171 169 160 154 153 150 140 140 145 143 142 138 130 120 102 92 96 96 98 91 92 96 95 93 90 93 91 88
229 223 213 214 229 213 182 167 147 137 130 136 165 173 170 170 169 163 158 158 154 148 153 153 148 138 139 135 118 97 81 86 89 91 96 96 97 97 96 93 86 81 76
241 233 214 213 227 215 192 191 187 191 191 184 172 177 169 170 166 164 164 162 161 165 166 159 148 142 135 130 116 104 69 73 93 88 89 91 90 101 99 91 87 83 69
244 243 225 214 217 221 216 220 205 190 188 190 166 163 169 162 168 168 165 172 169 166 161 162 154 157 153 151 143 136 126 61 58 99 97 105 94 107 103 104 102 98 81
265 250 240 232 231 230 212 196 184 143 149 176 190 187 169 163 167 169 172 169 171 172 174 173 170 163 168 166 152 152 154 190 187 256 165 153 167 134 134 142 141 139 135
276 263 246 235 235 234 201 188 183 185 191 211 206 197 176 163 168 168 169 178 173 177 178 179 177 172 167 172 173 139 140 145 151 174 227 207 200 198 203 210 203 193 188
289 275 256 240 243 229 205 196 196 197 191 185 186 182 191 170 162 168 176 180 178 180 185 178 175 173 176 176 171 162 126 103 120 151 192 209 218 226 217 224 221 218 224
317 311 281 254 267 243 206 197 203 199 188 177 183 191 201 188 176 174 180 181 185 185 189 185 182 180 184 181 172 170 163 158 165 161 180 195 211 234 222 228 227 228 232
Height
1515 1517 1519 1521 1523 1525 1527 1528 1530 1531 1532 1534 1535 1536 1537 1539 1540 1541 1542 1543 1544 1544 1545 1546 1547 1548 1548 1549 1550 1551 1551 1552 1552 1553 1553 1553 1554 1554 1554 1555 1555 1555 1555
1514 1516 1519 1521 1523 1525 1527 1529 1530 1531 1533 1534 1536 1537 1538 1539 1541 1542 1543 1544 1545 1546 1547 1547 1548 1549 1550 1551 1552 1552 1553 1554 1554 1555 1555 1556 1556 1557 1557 1557 1557 1558 1558
1513 1516 1518 1521 1523 1525 1527 1529 1530 1532 1533 1535 1536 1538 1539 1540 1541 1543 1544 1545 1546 1547 1548 1549 1550 1551 1552 1553 1553 1554 1555 1556 1556 1557 1557 1558 1558 1559 1559 1559 1559 1560 1560
1513 1516 1518 1521 1523 1525 1527 1529 1531 1532 1534 1535 1537 1538 1539 1541 1542 1543 1545 1546 1547 1548 1549 1550 1551 1552 1553 1554 1555 1556 1557 1557 1558 1559 1559 1560 1560 1561 1561 1561 1561 1562 1562
1514 1516 1518 1521 1523 1525 1527 1529 1531 1532 1534 1535 1537 1538 1540 1541 1543 1544 1546 1547 1548 1549 1550 1551 1552 1553 1554 1555 1556 1557 1558 1559 1560 1560 1561 1562 1562 1563 1563 1563 1563 1564 1564
1514 1516 1518 1520 1523 1525 1527 1529 1530 1532 1534 1535 1537 1539 1540 1541 1543 1545 1546 1548 1549 1550 1551 1552 1553 1554 1555 1556 1558 1559 1559 1560 1561 1562 1563 1563 1564 1565 1565 1565 1565 1565 1566
1514 1516 1518 1520 1522 1524 1526 1528 1530 1532 1534 1535 1537 1539 1540 1542 1543 1545 1546 1548 1549 1551 1552 1553 1554 1555 1557 1558 1559 1560 1561 1562 1563 1563 1564 1565 1565 1566 1566 1567 1567 1567 1567
1514 1516 1518 1520 1522 1524 1526 1528 1529 1531 1533 1535 1536 1538 1540 1542 1543 1545 1547 1548 1550 1551 1553 1554 1555 1556 1557 1559 1560 1561 1562 1563 1564 1565 1566 1566 1567 1567 1568 1568 1569 1569 1569
1515 1516 1518 1519 1521 1523 1525 1527 1529 1531 1533 1534 1536 1538 1539 1541 1543 1545 1547 1548 1550 1551 1553 1554 1556 1557 1558 1559 1561 1562 1563 1564 1565 1566 1567 1567 1568 1569 1569 1569 1570 1570 1570
1515 1516 1518 1519 1520 1522 1524 1526 1528 1530 1532 1534 1536 1537 1539 1541 1543 1545 1546 1548 1550 1552 1553 1555 1556 1558 1559 1560 1561 1562 1563 1564 1566 1567 1567 1568 1569 1570 1570 1571 1571 1571 1572
1514 1515 1517 1518 1519 1521 1523 1525 1527 1529 1531 1533 1535 1536 1538 1540 1542 1544 1546 1548 1550 1551 1553 1555 1556 1558 1559 1561 1562 1563 1564 1565 1566 1567 1568 1569 1570 1570 1571 1571 1572 1572 1573
1511 1514 1515 1517 1518 1520 1522 1524 1526 1528 1530 1532 1534 1535 1537 1539 1541 1543 1545 1547 1549 1551 1553 1554 1556 1558 1559 1561 1562 1564 1565 1566 1567 1568 1569 1570 1570 1571 1572 1572 1573 1573 1573
1510 1512 1514 1515 1517 1518 1520 1522 1524 1526 1528 1530 1532 1534 1536 1538 1540 1542 1544 1546 1548 1550 1552 1554 1556 1557 1559 1561 1562 1564 1565 1566 1567 1568 1569 1570 1571 1572 1572 1573 1573 1574 1574
1508 1510 1511 1513 1515 1517 1518 1520 1522 1524 1526 1528 1530 1532 1534 1536 1538 1541 1543 1545 1547 1549 1551 1553 1555 1557 1559 1560 1562 1563 1565 1566 1567 1568 1569 1571 1571 1572 1573 1573 1574 1574 1575
1506 1508 1509 1511 1513 1515 1516 1518 1520 1522 1524 1526 1528 1530 1533 1534 1537 1539 1541 1544 1546 1548 1550 1552 1554 1556 1558 1560 1562 1563 1565 1566 1567 1568 1570 1571 1572 1572 1573 1573 1574 1574 1575
1504 1505 1507 1509 1511 1512 1514 1516 1518 1520 1522 1524 1526 1528 1531 1533 1535 1537 1540 1542 1545 1547 1549 1551 1553 1555 1557 1559 1561 1562 1564 1566 1567 1568 1569 1571 1572 1572 1573 1574 1574 1574 1575
1501 1503 1504 1506 1508 1510 1512 1514 1515 1517 1519 1521 1524 1526 1529 1531 1534 1536 1538 1540 1543 1545 1547 1549 1552 1554 1556 1558 1560 1561 1563 1565 1566 1568 1569 1570 1571 1572 1573 1573 1574 1574 1575
1498 1500 1501 1503 1505 1507 1509 1511 1512 1515 1517 1519 1521 1524 1526 1529 1532 1534 1536 1539 1541 1543 1545 1547 1550 1552 1554 1556 1558 1560 1562 1564 1565 1567 1568 1569 1570 1571 1572 1573 1573 1574 1574
1496 1497 1498 1500 1502 1504 1506 1508 1510 1512 1514 1516 1518 1521 1524 1526 1529 1531 1534 1536 1539 1541 1543 1546 1548 1550 1552 1554 1557 1558 1560 1562 1564 1565 1567 1568 1569 1570 1571 1572 1572 1573 1573
1493 1494 1495 1497 1499 1501 1503 1505 1507 1509 1511 1513 1515 1518 1520 1523 1526 1529 1531 1534 1536 1539 1541 1543 1545 1548 1551 1553 1555 1557 1559 1561 1562 1563 1565 1566 1568 1569 1570 1570 1571 1572 1572
1490 1491 1492 1493 1495 1497 1499 1501 1503 1505 1507 1510 1512 1514 1517 1520 1523 1525 1528 1530 1533 1535 1538 1540 1543 1545 1548 1551 1553 1555 1557 1559 1560 1561 1563 1564 1566 1567 1568 1569 1569 1570 1571
1486 1487 1489 1490 1492 1494 1496 1498 1500 1502 1504 1506 1509 1511 1514 1516 1519 1522 1525 1527 1529 1532 1535 1537 1540 1542 1545 1548 1550 1552 1555 1558 1558 1559 1561 1562 1563 1565 1566 1567 1568 1568 1569
1483 1484 1485 1487 1488 1490 1493 1495 1497 1499 1501 1503 1505 1507 1510 1512 1515 1518 1521 1524 1526 1529 1531 1534 1537 1539 1541 1545 1547 1550 1551 1553 1555 1557 1558 1560 1561 1562 1564 1565 1565 1566 1567
1480 1481 1483 1484 1486 1487 1490 1492 1493 1495 1496 1499 1501 1504 1507 1509 1512 1514 1517 1520 1523 1525 1527 1530 1533 1536 1538 1541 1544 1546 1549 1550 1552 1554 1557 1558 1559 1560 1561 1562 1563 1564 1564
1477 1478 1480 1481 1483 1484 1487 1488 1490 1492 1494 1496 1499 1501 1503 1506 1508 1511 1514 1516 1519 1522 1524 1527 1529 1533 1535 1538 1540 1542 1545 1547 1549 1551 1552 1555 1556 1557 1558 1559 1560 1561 1562
1474 1475 1476 1477 1479 1480 1482 1484 1487 1488 1490 1493 1495 1497 1500 1501 1504 1507 1510 1513 1516 1518 1520 1523 1526 1529 1532 1535 1538 1540 1541 1543 1545 1547 1549 1550 1552 1554 1555 1557 1558 1558 1559